| time (UTC) | temp C | wind direction | speed KPH | gust KPH | rain 1hr cm | rain 24hr cm | rain mn cm | humidity % | barometer mb |
| 20260510011515 | 10 | 306 | 0.0 | 16.1 | 0.43 | 1.42 | 1.24 | 85 | 1009.9 |
| 20260510010013 | 12 | 355 | 8.0 | 32.2 | 0.25 | 1.27 | 1.07 | 79 | 1008.9 |
| 20260510004513 | 13 | 159 | 1.6 | 4.8 | 0.00 | 1.02 | 0.81 | 77 | 1006.9 |
| 20260510003012 | 13 | 229 | 1.6 | 9.7 | 0.00 | 1.02 | 0.81 | 76 | 1006.5 |
| 20260510001511 | 14 | 205 | 3.2 | 8.0 | 0.00 | 1.02 | 0.81 | 73 | 1006.4 |
| 20260510000010 | 14 | 167 | 1.6 | 8.0 | 0.00 | 1.02 | 0.81 | 72 | 1006.2 |
| 20260509234513 | 15 | 140 | 4.8 | 12.9 | 0.00 | 1.02 | 0.81 | 71 | 1006.0 |
| 20260509233011 | 15 | 122 | 1.6 | 8.0 | 0.00 | 1.02 | 0.81 | 70 | 1006.1 |
| 20260509231510 | 15 | 135 | 3.2 | 14.5 | 0.00 | 1.02 | 0.81 | 69 | 1006.0 |
| 20260509230009 | 15 | 101 | 4.8 | 12.9 | 0.00 | 1.02 | 0.81 | 69 | 1005.8 |
| 20260509224509 | 15 | 109 | 8.0 | 16.1 | 0.00 | 1.02 | 0.81 | 67 | 1005.9 |
| 20260509223008 | 16 | 168 | 9.7 | 24.1 | 0.00 | 1.02 | 0.81 | 67 | 1005.7 |
| 20260509221508 | 16 | 126 | 4.8 | 14.5 | 0.00 | 1.02 | 0.81 | 66 | 1005.8 |
| 20260509220008 | 16 | 148 | 6.4 | 25.7 | 0.00 | 1.02 | 0.81 | 62 | 1005.6 |
| 20260509214506 | 16 | 151 | 4.8 | 11.3 | 0.00 | 1.02 | 0.81 | 64 | 1005.8 |
| 20260509213009 | 16 | 132 | 12.9 | 22.5 | 0.00 | 1.02 | 0.81 | 66 | 1005.8 |
| 20260509211504 | 16 | 99 | 3.2 | 16.1 | 0.00 | 1.02 | 0.81 | 65 | 1005.7 |
| 20260509210001 | 16 | 95 | 6.4 | 25.7 | 0.00 | 1.02 | 0.81 | 64 | 1006.2 |
| 20260509204503 | 16 | 177 | 3.2 | 17.7 | 0.00 | 1.02 | 0.81 | 64 | 1006.1 |
| 20260509203100 | 16 | 148 | 9.7 | 20.9 | 0.00 | 1.02 | 0.81 | 65 | 1006.3 |
| 20260509201557 | 16 | 117 | 3.2 | 19.3 | 0.00 | 1.02 | 0.81 | 69 | 1006.5 |
| 20260509200108 | 16 | 245 | 6.4 | 25.7 | 0.00 | 1.02 | 0.81 | 68 | 1006.8 |
| 20260509194555 | 16 | 151 | 11.3 | 19.3 | 0.00 | 1.02 | 0.81 | 70 | 1006.9 |
| 20260509193051 | 15 | 24 | 9.7 | 25.7 | 0.00 | 1.02 | 0.81 | 70 | 1007.0 |
| 20260509191547 | 15 | 84 | 9.7 | 17.7 | 0.00 | 1.02 | 0.81 | 74 | 1007.1 |
| 20260509190042 | 14 | 277 | 8.0 | 17.7 | 0.00 | 1.02 | 0.81 | 79 | 1007.6 |
| 20260509184538 | 13 | 313 | 1.6 | 8.0 | 0.00 | 1.02 | 0.81 | 83 | 1007.7 |
| 20260509183053 | 12 | 323 | 1.6 | 12.9 | 0.00 | 1.02 | 0.81 | 84 | 1007.8 |
| 20260509181534 | 12 | 234 | 8.0 | 17.7 | 0.00 | 1.02 | 0.81 | 84 | 1007.9 |
| 20260509180031 | 12 | 146 | 6.4 | 12.9 | 0.00 | 1.02 | 0.81 | 84 | 1007.8 |
| 20260509174542 | 11 | 175 | 1.6 | 12.9 | 0.00 | 1.02 | 0.81 | 87 | 1007.9 |
| 20260509173026 | 11 | 128 | 1.6 | 6.4 | 0.00 | 1.02 | 0.81 | 89 | 1008.0 |
| 20260509171532 | 11 | 161 | 4.8 | 12.9 | 0.00 | 1.02 | 0.81 | 89 | 1008.1 |
| 20260509170021 | 10 | 234 | 3.2 | 6.4 | 0.00 | 1.02 | 0.81 | 89 | 1008.1 |
| 20260509164520 | 10 | 273 | 0.0 | 11.3 | 0.00 | 1.02 | 0.81 | 90 | 1008.0 |
| 20260509163027 | 10 | 297 | 3.2 | 9.7 | 0.00 | 1.02 | 0.81 | 91 | 1007.9 |
| 20260509161525 | 10 | 128 | 1.6 | 4.8 | 0.00 | 1.02 | 0.81 | 91 | 1007.8 |
| 20260509160014 | 10 | 201 | 3.2 | 9.7 | 0.00 | 1.02 | 0.81 | 91 | 1008.0 |
| 20260509154512 | 10 | 154 | 1.6 | 8.0 | 0.00 | 1.02 | 0.81 | 91 | 1008.0 |
| 20260509153018 | 10 | 167 | 3.2 | 8.0 | 0.00 | 1.02 | 0.81 | 92 | 1008.1 |
| 20260509151512 | 10 | 150 | 1.6 | 12.9 | 0.00 | 1.02 | 0.81 | 92 | 1008.1 |
| 20260509150019 | 10 | 120 | 3.2 | 6.4 | 0.00 | 1.02 | 0.81 | 93 | 1008.1 |
| 20260509144504 | 9 | 162 | 3.2 | 9.7 | 0.00 | 1.02 | 0.81 | 93 | 1008.2 |
| 20260509143006 | 9 | 160 | 3.2 | 8.0 | 0.00 | 1.02 | 0.81 | 93 | 1008.3 |
| 20260509141503 | 9 | 155 | 3.2 | 4.8 | 0.00 | 1.02 | 0.81 | 93 | 1008.3 |
| 20260509140001 | 9 | 132 | 4.8 | 11.3 | 0.00 | 1.02 | 0.81 | 93 | 1008.3 |
| 20260509134500 | 9 | 128 | 6.4 | 12.9 | 0.00 | 1.07 | 0.81 | 94 | 1008.3 |
| 20260509133058 | 9 | 122 | 6.4 | 11.3 | 0.00 | 1.07 | 0.81 | 94 | 1008.4 |
| 20260509131517 | 8 | 126 | 3.2 | 6.4 | 0.00 | 1.07 | 0.81 | 94 | 1008.6 |
| 20260509130011 | 8 | 163 | 1.6 | 3.2 | 0.00 | 1.07 | 0.81 | 95 | 1008.7 |
| 20260509124509 | 8 | 163 | 1.6 | 3.2 | 0.03 | 1.07 | 0.81 | 95 | 1008.7 |
| 20260509123008 | 8 | 77 | 0.0 | 3.2 | 0.08 | 1.07 | 0.81 | 95 | 1008.7 |
| 20260509121504 | 8 | 65 | 0.0 | 1.6 | 0.13 | 1.07 | 0.81 | 95 | 1008.7 |
| 20260509120001 | 8 | 65 | 0.0 | 1.6 | 0.15 | 1.07 | 0.81 | 95 | 1009.0 |
| 20260509114503 | 8 | 65 | 0.0 | 3.2 | 0.15 | 1.04 | 0.79 | 95 | 1008.9 |
| 20260509113106 | 8 | 65 | 0.0 | 3.2 | 0.10 | 0.99 | 0.71 | 94 | 1008.9 |
| 20260509111558 | 7 | 309 | 0.0 | 3.2 | 0.05 | 0.94 | 0.69 | 94 | 1009.1 |
| 20260509110057 | 7 | 290 | 0.0 | 4.8 | 0.08 | 0.91 | 0.66 | 94 | 1009.0 |
| 20260509104553 | 7 | 136 | 1.6 | 3.2 | 0.10 | 0.89 | 0.64 | 94 | 1009.0 |
| 20260509103058 | 7 | 199 | 0.0 | 6.4 | 0.18 | 0.89 | 0.64 | 94 | 1008.9 |
| 20260509101547 | 7 | 189 | 1.6 | 4.8 | 0.20 | 0.89 | 0.64 | 94 | 1009.1 |
| 20260509100049 | 7 | 172 | 3.2 | 4.8 | 0.23 | 0.84 | 0.58 | 94 | 1009.2 |
| 20260509094546 | 7 | 146 | 1.6 | 4.8 | 0.23 | 0.79 | 0.53 | 94 | 1009.3 |
| 20260509093044 | 7 | 236 | 1.6 | 4.8 | 0.18 | 0.71 | 0.46 | 94 | 1009.2 |
| 20260509091541 | 7 | 131 | 3.2 | 6.4 | 0.18 | 0.66 | 0.41 | 94 | 1009.4 |
| 20260509090048 | 7 | 144 | 0.0 | 3.2 | 0.15 | 0.58 | 0.33 | 94 | 1009.4 |
| 20260509084540 | 7 | 144 | 0.0 | 4.8 | 0.15 | 0.56 | 0.30 | 94 | 1009.3 |
| 20260509083038 | 7 | 173 | 0.0 | 4.8 | 0.13 | 0.53 | 0.28 | 93 | 1009.2 |
| 20260509081537 | 7 | 185 | 0.0 | 3.2 | 0.08 | 0.48 | 0.23 | 93 | 1009.3 |
| 20260509080033 | 7 | 185 | 0.0 | 1.6 | 0.05 | 0.43 | 0.18 | 93 | 1009.8 |
| 20260509074534 | 7 | 185 | 1.6 | 3.2 | 0.03 | 0.41 | 0.15 | 93 | 1009.8 |
| 20260509073029 | 7 | 185 | 0.0 | 1.6 | 0.03 | 0.41 | 0.15 | 93 | 1009.9 |
| 20260509071527 | 7 | 185 | 1.6 | 3.2 | 0.03 | 0.41 | 0.15 | 93 | 1010.0 |
| 20260509070025 | 7 | 198 | 0.0 | 1.6 | 0.00 | 0.38 | 0.13 | 93 | 1010.3 |
| 20260509064523 | 7 | 207 | 0.0 | 3.2 | 0.00 | 0.38 | 0.13 | 93 | 1010.5 |
| 20260509063025 | 7 | 178 | 0.0 | 1.6 | 0.00 | 0.38 | 0.13 | 93 | 1010.8 |
| 20260509061519 | 7 | 188 | 1.6 | 4.8 | 0.03 | 0.38 | 0.13 | 93 | 1010.9 |
| 20260509060016 | 7 | 161 | 1.6 | 8.0 | 0.05 | 0.38 | 0.13 | 92 | 1011.3 |
| 20260509054515 | 7 | 167 | 3.2 | 6.4 | 0.08 | 0.38 | 0.13 | 92 | 1011.4 |
| 20260509053014 | 7 | 165 | 1.6 | 3.2 | 0.10 | 0.38 | 0.13 | 92 | 1011.7 |
| 20260509051512 | 7 | 165 | 1.6 | 3.2 | 0.08 | 0.36 | 0.10 | 92 | 1011.8 |
| 20260509050029 | 7 | 165 | 0.0 | 4.8 | 0.08 | 0.33 | 0.08 | 91 | 1011.8 |
| 20260509044509 | 7 | 165 | 1.6 | 6.4 | 0.08 | 0.30 | 0.05 | 91 | 1012.0 |
| 20260509043008 | 7 | 127 | 0.0 | 3.2 | 0.08 | 0.28 | 0.03 | 91 | 1012.0 |
| 20260509041504 | 8 | 139 | 0.0 | 4.8 | 0.13 | 0.28 | 0.03 | 90 | 1012.2 |
| 20260509040101 | 8 | 190 | 0.0 | 4.8 | 0.15 | 0.25 | 0.00 | 89 | 1012.2 |
| 20260509034600 | 8 | 309 | 0.0 | 4.8 | 0.18 | 0.23 | 0.23 | 89 | 1012.2 |
| 20260509033100 | 8 | 36 | 1.6 | 4.8 | 0.15 | 0.20 | 0.20 | 88 | 1012.2 |
| 20260509031623 | 8 | 57 | 3.2 | 11.3 | 0.10 | 0.15 | 0.15 | 86 | 1012.5 |
| 20260509030101 | 8 | 80 | 0.0 | 4.8 | 0.05 | 0.10 | 0.10 | 85 | 1012.5 |
| 20260509024604 | 9 | 148 | 6.4 | 14.5 | 0.00 | 0.05 | 0.05 | 84 | 1012.6 |
| 20260509023102 | 9 | 217 | 4.8 | 11.3 | 0.00 | 0.05 | 0.05 | 82 | 1012.6 |
| 20260509021557 | 9 | 226 | 8.0 | 14.5 | 0.00 | 0.05 | 0.05 | 83 | 1012.7 |
| 20260509020057 | 9 | 247 | 0.0 | 4.8 | 0.00 | 0.05 | 0.05 | 86 | 1012.6 |
| 20260509014558 | 9 | 248 | 0.0 | 4.8 | 0.00 | 0.05 | 0.05 | 85 | 1012.5 |
| 20260509013106 | 10 | 306 | 0.0 | 3.2 | 0.00 | 0.05 | 0.05 | 83 | 1012.5 |